View from above orbital plane
|
View from above satellite
|
Ground track
|
The orbit data is extracted from the following two-line orbital elements,
1 20453U 90008B 13143.14325150 .00008356 00000-0 57286-3 0 6848
2 20453 035.6283 241.7103 0344546 161.3065 200.0655 14.67974424228344
| Epoch (UTC): | 23 May 2013 03:26:16 |
| Eccentricity: | 0.0344546 |
| inclination: | 35.6283° |
| perigee height: | 425 km |
| apogee height: | 910 km |
| right ascension of ascending node: | 241.7103° |
| argument of perigee: | 161.3065° |
| revolutions per day: | 14.67974424 |
| mean anomaly at epoch: | 200.0655° |
| orbit number at epoch: | 22834 |
The dashed part of the orbit path shows where the satellite is in the earth's shadow,
|
|